| time (UTC) | temp F | wind direction | speed MPH | gust MPH | rain 1hr in | rain 24hr in | rain mn in | humidity % | barometer mb |
| 20260505073600 | 42 | 63 | 3.0 | 9.0 | 0.00 | 0.01 | 0.00 | 66 | 1006.5 |
| 20260505073101 | 42 | 101 | 4.0 | 11.0 | 0.00 | 0.01 | 0.00 | 66 | 1006.4 |
| 20260505072600 | 43 | 83 | 6.0 | 11.0 | 0.00 | 0.01 | 0.00 | 65 | 1006.3 |
| 20260505072103 | 43 | 59 | 6.0 | 13.0 | 0.00 | 0.01 | 0.00 | 66 | 1006.4 |
| 20260505071602 | 43 | 72 | 6.0 | 13.0 | 0.00 | 0.01 | 0.00 | 66 | 1006.4 |
| 20260505071102 | 43 | 68 | 6.0 | 13.0 | 0.00 | 0.01 | 0.00 | 67 | 1006.3 |
| 20260505070602 | 43 | 53 | 6.0 | 13.0 | 0.00 | 0.01 | 0.00 | 67 | 1006.3 |
| 20260505070242 | 43 | 46 | 6.0 | 12.0 | 0.00 | 0.01 | 0.00 | 68 | 1006.3 |
| 20260505065601 | 43 | 40 | 6.0 | 12.0 | 0.00 | 0.01 | 0.00 | 68 | 1006.3 |
| 20260505065102 | 43 | 32 | 7.0 | 14.0 | 0.00 | 0.01 | 0.00 | 68 | 1006.3 |
| 20260505064602 | 43 | 12 | 6.0 | 14.0 | 0.00 | 0.01 | 0.00 | 69 | 1006.3 |
| 20260505064243 | 43 | 14 | 6.0 | 11.0 | 0.00 | 0.01 | 0.00 | 69 | 1006.4 |
| 20260505063601 | 43 | 333 | 6.0 | 11.0 | 0.00 | 0.01 | 0.00 | 71 | 1006.4 |
| 20260505063101 | 43 | 337 | 5.0 | 11.0 | 0.00 | 0.01 | 0.00 | 72 | 1006.4 |
| 20260505062601 | 43 | 14 | 5.0 | 11.0 | 0.00 | 0.01 | 0.00 | 70 | 1006.4 |
| 20260505062242 | 43 | 62 | 4.0 | 11.0 | 0.00 | 0.01 | 0.00 | 70 | 1006.3 |
| 20260505061602 | 43 | 69 | 4.0 | 9.0 | 0.00 | 0.01 | 0.00 | 71 | 1006.4 |
| 20260505061103 | 44 | 17 | 7.0 | 9.0 | 0.00 | 0.01 | 0.00 | 71 | 1006.3 |
| 20260505060602 | 44 | 53 | 7.0 | 13.0 | 0.00 | 0.01 | 0.00 | 70 | 1006.3 |
| 20260505055727 | 45 | 37 | 7.0 | 13.0 | 0.00 | 0.01 | 0.01 | 70 | 1006.3 |
| 20260505055101 | 45 | 54 | 6.0 | 13.0 | 0.00 | 0.01 | 0.01 | 70 | 1006.1 |
| 20260505054601 | 46 | 63 | 6.0 | 13.0 | 0.00 | 0.01 | 0.01 | 70 | 1006.1 |
| 20260505054101 | 46 | 48 | 7.0 | 13.0 | 0.00 | 0.01 | 0.01 | 69 | 1006.0 |
| 20260505053603 | 46 | 59 | 6.0 | 10.0 | 0.01 | 0.01 | 0.01 | 71 | 1005.9 |
| 20260505053226 | 47 | 65 | 7.0 | 11.0 | 0.01 | 0.01 | 0.01 | 68 | 1006.1 |
| 20260505052558 | 47 | 31 | 7.0 | 11.0 | 0.01 | 0.01 | 0.01 | 70 | 1006.3 |
| 20260505052057 | 47 | 73 | 6.0 | 10.0 | 0.01 | 0.01 | 0.01 | 70 | 1006.0 |
| 20260505051557 | 47 | 79 | 6.0 | 10.0 | 0.01 | 0.01 | 0.01 | 70 | 1005.9 |
| 20260505051058 | 47 | 46 | 5.0 | 10.0 | 0.01 | 0.01 | 0.01 | 69 | 1006.0 |
| 20260505050558 | 47 | 63 | 7.0 | 19.0 | 0.01 | 0.01 | 0.01 | 69 | 1006.1 |
| 20260505050220 | 47 | 94 | 8.0 | 19.0 | 0.01 | 0.01 | 0.01 | 69 | 1006.1 |
| 20260505041556 | 51 | 63 | 10.0 | 16.0 | 0.00 | 0.00 | 0.00 | 46 | 1006.0 |
| 20260505041056 | 52 | 59 | 11.0 | 19.0 | 0.00 | 0.00 | 0.00 | 46 | 1005.9 |
| 20260505040555 | 52 | 94 | 11.0 | 19.0 | 0.00 | 0.00 | 0.00 | 45 | 1005.7 |
| 20260505040056 | 52 | 72 | 10.0 | 21.0 | 0.00 | 0.00 | 0.00 | 46 | 1005.5 |
| 20260505035556 | 52 | 53 | 6.0 | 21.0 | 0.00 | 0.00 | 0.00 | 46 | 1005.5 |
| 20260505035055 | 52 | 92 | 3.0 | 8.0 | 0.00 | 0.00 | 0.00 | 54 | 1005.3 |
| 20260505034557 | 52 | 105 | 4.0 | 10.0 | 0.00 | 0.00 | 0.00 | 53 | 1005.2 |
| 20260505034052 | 52 | 162 | 5.0 | 10.0 | 0.00 | 0.00 | 0.00 | 54 | 1004.9 |
| 20260505033719 | 52 | 186 | 7.0 | 15.0 | 0.00 | 0.00 | 0.00 | 55 | 1004.8 |
| 20260505033052 | 53 | 190 | 8.0 | 24.0 | 0.00 | 0.00 | 0.00 | 53 | 1004.8 |
| 20260505032551 | 53 | 267 | 9.0 | 24.0 | 0.00 | 0.00 | 0.00 | 49 | 1004.7 |
| 20260505032051 | 54 | 120 | 15.0 | 33.0 | 0.00 | 0.00 | 0.00 | 47 | 1004.8 |
| 20260505031715 | 55 | 54 | 13.0 | 33.0 | 0.00 | 0.00 | 0.00 | 45 | 1004.6 |
| 20260505031052 | 56 | 123 | 10.0 | 22.0 | 0.00 | 0.00 | 0.00 | 38 | 1004.1 |
| 20260505030551 | 56 | 61 | 12.0 | 20.0 | 0.00 | 0.00 | 0.00 | 37 | 1004.1 |
| 20260505030052 | 56 | 69 | 12.0 | 21.0 | 0.00 | 0.00 | 0.00 | 36 | 1004.0 |
| 20260505025716 | 56 | 65 | 12.0 | 21.0 | 0.00 | 0.00 | 0.00 | 36 | 1003.8 |
| 20260505025051 | 57 | 83 | 13.0 | 24.0 | 0.00 | 0.00 | 0.00 | 35 | 1003.7 |
| 20260505024550 | 57 | 95 | 13.0 | 24.0 | 0.00 | 0.00 | 0.00 | 35 | 1003.5 |
| 20260505024050 | 57 | 98 | 12.0 | 22.0 | 0.00 | 0.00 | 0.00 | 35 | 1003.5 |
| 20260505023549 | 57 | 60 | 13.0 | 20.0 | 0.00 | 0.00 | 0.00 | 35 | 1003.2 |
| 20260505023218 | 57 | 92 | 17.0 | 28.0 | 0.00 | 0.00 | 0.00 | 35 | 1003.0 |
| 20260505022549 | 57 | 98 | 18.0 | 28.0 | 0.00 | 0.00 | 0.00 | 34 | 1003.0 |
| 20260505022049 | 58 | 90 | 17.0 | 28.0 | 0.00 | 0.00 | 0.00 | 34 | 1002.8 |
| 20260505021549 | 58 | 61 | 17.0 | 28.0 | 0.00 | 0.00 | 0.00 | 34 | 1002.6 |
| 20260505021218 | 58 | 88 | 19.0 | 28.0 | 0.00 | 0.00 | 0.00 | 33 | 1002.5 |
| 20260505020537 | 59 | 71 | 18.0 | 32.0 | 0.00 | 0.00 | 0.00 | 32 | 1002.3 |
| 20260505020031 | 60 | 91 | 16.0 | 32.0 | 0.00 | 0.00 | 0.00 | 31 | 1002.0 |
| 20260505015532 | 61 | 69 | 12.0 | 26.0 | 0.00 | 0.00 | 0.00 | 30 | 1002.2 |
| 20260505015031 | 62 | 68 | 8.0 | 16.0 | 0.00 | 0.00 | 0.00 | 24 | 1002.0 |
| 20260505014717 | 62 | 95 | 5.0 | 12.0 | 0.00 | 0.00 | 0.00 | 24 | 1002.0 |
| 20260505014031 | 62 | 65 | 3.0 | 9.0 | 0.00 | 0.00 | 0.00 | 24 | 1002.2 |
| 20260505013717 | 62 | 342 | 3.0 | 9.0 | 0.00 | 0.00 | 0.00 | 24 | 1002.3 |
| 20260505013032 | 62 | 63 | 6.0 | 18.0 | 0.00 | 0.00 | 0.00 | 24 | 1002.2 |
| 20260505012531 | 63 | 56 | 9.0 | 18.0 | 0.00 | 0.00 | 0.00 | 23 | 1002.3 |
| 20260505012031 | 63 | 34 | 11.0 | 21.0 | 0.00 | 0.00 | 0.00 | 22 | 1002.2 |
| 20260505011531 | 63 | 30 | 12.0 | 21.0 | 0.00 | 0.00 | 0.00 | 22 | 1001.9 |
| 20260505011030 | 64 | 20 | 12.0 | 21.0 | 0.00 | 0.00 | 0.00 | 22 | 1001.8 |
| 20260505010717 | 64 | 57 | 11.0 | 22.0 | 0.00 | 0.00 | 0.00 | 22 | 1001.8 |
| 20260505010030 | 64 | 26 | 11.0 | 22.0 | 0.00 | 0.00 | 0.00 | 22 | 1001.8 |
| 20260505005529 | 64 | 37 | 13.0 | 23.0 | 0.00 | 0.00 | 0.00 | 21 | 1001.8 |
| 20260505005215 | 65 | 323 | 12.0 | 23.0 | 0.00 | 0.00 | 0.00 | 21 | 1001.7 |
| 20260505004715 | 66 | 30 | 8.0 | 22.0 | 0.00 | 0.00 | 0.00 | 20 | 1001.7 |
| 20260505004028 | 66 | 22 | 6.0 | 12.0 | 0.00 | 0.00 | 0.00 | 18 | 1001.7 |
| 20260505003530 | 67 | 44 | 7.0 | 9.0 | 0.00 | 0.00 | 0.00 | 18 | 1001.5 |
| 20260505003031 | 67 | 336 | 7.0 | 18.0 | 0.00 | 0.00 | 0.00 | 18 | 1001.7 |
| 20260505002529 | 68 | 335 | 8.0 | 18.0 | 0.00 | 0.00 | 0.00 | 17 | 1001.5 |
| 20260505002029 | 69 | 308 | 7.0 | 18.0 | 0.00 | 0.00 | 0.00 | 17 | 1001.5 |
| 20260505001712 | 69 | 269 | 6.0 | 18.0 | 0.00 | 0.00 | 0.00 | 17 | 1001.4 |
| 20260505001029 | 68 | 311 | 7.0 | 12.0 | 0.00 | 0.00 | 0.00 | 16 | 1001.5 |
| 20260505000530 | 69 | 299 | 7.0 | 12.0 | 0.00 | 0.00 | 0.00 | 17 | 1001.7 |
| 20260505000030 | 68 | 288 | 7.0 | 12.0 | 0.00 | 0.00 | 0.00 | 17 | 1001.5 |
| 20260504235530 | 68 | 23 | 6.0 | 13.0 | 0.00 | 0.00 | 0.00 | 17 | 1001.5 |
| 20260504235030 | 68 | 290 | 6.0 | 13.0 | 0.00 | 0.00 | 0.00 | 17 | 1001.5 |
| 20260504234530 | 67 | 277 | 7.0 | 13.0 | 0.00 | 0.00 | 0.00 | 17 | 1001.7 |
| 20260504234214 | 68 | 337 | 6.0 | 13.0 | 0.00 | 0.00 | 0.00 | 17 | 1001.7 |
| 20260504233530 | 68 | 49 | 5.0 | 11.0 | 0.00 | 0.00 | 0.00 | 17 | 1001.5 |
| 20260504233030 | 68 | 333 | 7.0 | 21.0 | 0.00 | 0.00 | 0.00 | 17 | 1001.5 |
| 20260504232530 | 67 | 41 | 11.0 | 21.0 | 0.00 | 0.00 | 0.00 | 17 | 1001.5 |
| 20260504232216 | 67 | 21 | 12.0 | 21.0 | 0.00 | 0.00 | 0.00 | 18 | 1001.5 |
| 20260504231715 | 68 | 40 | 10.0 | 21.0 | 0.00 | 0.00 | 0.00 | 17 | 1001.5 |
| 20260504231032 | 68 | 34 | 11.0 | 18.0 | 0.00 | 0.00 | 0.00 | 17 | 1001.5 |
| 20260504230531 | 68 | 305 | 11.0 | 19.0 | 0.00 | 0.00 | 0.00 | 17 | 1001.5 |
| 20260504230031 | 68 | 333 | 9.0 | 20.0 | 0.00 | 0.00 | 0.00 | 16 | 1001.5 |
| 20260504225531 | 69 | 347 | 7.0 | 20.0 | 0.00 | 0.00 | 0.00 | 16 | 1001.5 |
| 20260504225030 | 69 | 301 | 6.0 | 13.0 | 0.00 | 0.00 | 0.00 | 16 | 1001.4 |
| 20260504224530 | 69 | 317 | 7.0 | 15.0 | 0.00 | 0.00 | 0.00 | 16 | 1001.4 |
| 20260504224030 | 69 | 340 | 8.0 | 16.0 | 0.00 | 0.00 | 0.00 | 16 | 1001.7 |
| 20260504223530 | 69 | 309 | 7.0 | 16.0 | 0.00 | 0.00 | 0.00 | 15 | 1001.5 |
| 20260504223031 | 69 | 342 | 6.0 | 15.0 | 0.00 | 0.00 | 0.00 | 16 | 1001.5 |
| 20260504222530 | 68 | 278 | 9.0 | 20.0 | 0.00 | 0.00 | 0.00 | 16 | 1001.7 |
| 20260504222216 | 68 | 26 | 11.0 | 22.0 | 0.00 | 0.00 | 0.00 | 15 | 1001.7 |
| 20260504221530 | 69 | 317 | 9.0 | 22.0 | 0.00 | 0.00 | 0.00 | 15 | 1001.7 |
| 20260504221030 | 69 | 42 | 7.0 | 14.0 | 0.00 | 0.00 | 0.00 | 17 | 1001.8 |
| 20260504220530 | 69 | 328 | 9.0 | 15.0 | 0.00 | 0.00 | 0.00 | 17 | 1001.8 |
| 20260504220029 | 69 | 332 | 9.0 | 15.0 | 0.00 | 0.00 | 0.00 | 17 | 1001.9 |
| 20260504215529 | 68 | 0 | 6.0 | 14.0 | 0.00 | 0.00 | 0.00 | 18 | 1002.0 |
| 20260504215215 | 67 | 327 | 6.0 | 12.0 | 0.00 | 0.00 | 0.00 | 17 | 1002.0 |
| 20260504214529 | 67 | 44 | 7.0 | 13.0 | 0.00 | 0.00 | 0.00 | 18 | 1002.2 |
| 20260504214029 | 66 | 55 | 7.0 | 16.0 | 0.00 | 0.00 | 0.00 | 18 | 1002.3 |
| 20260504213529 | 67 | 327 | 7.0 | 16.0 | 0.00 | 0.00 | 0.00 | 18 | 1002.5 |
| 20260504213029 | 67 | 302 | 10.0 | 18.0 | 0.00 | 0.00 | 0.00 | 17 | 1002.5 |
| 20260504212528 | 68 | 325 | 8.0 | 18.0 | 0.00 | 0.00 | 0.00 | 16 | 1002.6 |
| 20260504212029 | 69 | 12 | 4.0 | 12.0 | 0.00 | 0.00 | 0.00 | 16 | 1002.6 |
| 20260504211529 | 69 | 222 | 5.0 | 20.0 | 0.00 | 0.00 | 0.00 | 16 | 1002.6 |
| 20260504211029 | 68 | 265 | 8.0 | 20.0 | 0.00 | 0.00 | 0.00 | 16 | 1002.6 |
| 20260504210529 | 67 | 24 | 10.0 | 21.0 | 0.00 | 0.00 | 0.00 | 16 | 1002.8 |
| 20260504210029 | 67 | 318 | 9.0 | 21.0 | 0.00 | 0.00 | 0.00 | 17 | 1002.8 |
| 20260504205715 | 67 | 346 | 6.0 | 14.0 | 0.00 | 0.00 | 0.00 | 17 | 1002.9 |
| 20260504205029 | 66 | 250 | 8.0 | 16.0 | 0.00 | 0.00 | 0.00 | 16 | 1002.9 |
| 20260504204529 | 67 | 308 | 7.0 | 16.0 | 0.00 | 0.00 | 0.00 | 15 | 1003.0 |
| 20260504204029 | 67 | 292 | 7.0 | 14.0 | 0.00 | 0.00 | 0.00 | 16 | 1003.0 |
| 20260504203530 | 67 | 279 | 9.0 | 15.0 | 0.00 | 0.00 | 0.00 | 15 | 1003.1 |
| 20260504203030 | 68 | 18 | 9.0 | 15.0 | 0.00 | 0.00 | 0.00 | 16 | 1003.1 |
| 20260504202530 | 67 | 272 | 7.0 | 14.0 | 0.00 | 0.00 | 0.00 | 17 | 1003.1 |
| 20260504202029 | 68 | 250 | 6.0 | 16.0 | 0.00 | 0.00 | 0.00 | 16 | 1003.2 |
| 20260504201529 | 67 | 262 | 5.0 | 16.0 | 0.00 | 0.00 | 0.00 | 17 | 1003.4 |
| 20260504201029 | 67 | 173 | 5.0 | 12.0 | 0.00 | 0.00 | 0.00 | 17 | 1003.4 |
| 20260504200528 | 66 | 56 | 6.0 | 12.0 | 0.00 | 0.00 | 0.00 | 17 | 1003.6 |
| 20260504200214 | 66 | 70 | 7.0 | 12.0 | 0.00 | 0.00 | 0.00 | 17 | 1003.6 |
| 20260504195530 | 66 | 333 | 7.0 | 13.0 | 0.00 | 0.00 | 0.00 | 17 | 1003.7 |
| 20260504195030 | 67 | 296 | 8.0 | 13.0 | 0.00 | 0.00 | 0.00 | 17 | 1003.7 |
| 20260504194530 | 67 | 336 | 7.0 | 13.0 | 0.00 | 0.00 | 0.00 | 18 | 1003.6 |
| 20260504194214 | 67 | 15 | 6.0 | 13.0 | 0.00 | 0.00 | 0.00 | 17 | 1003.8 |
| 20260504193531 | 67 | 281 | 6.0 | 13.0 | 0.00 | 0.00 | 0.00 | 17 | 1003.7 |
| 20260504193030 | 66 | 346 | 6.0 | 13.0 | 0.00 | 0.00 | 0.00 | 18 | 1004.0 |
| 20260504192530 | 66 | 291 | 5.0 | 13.0 | 0.00 | 0.00 | 0.00 | 18 | 1004.0 |
| 20260504192030 | 65 | 329 | 6.0 | 14.0 | 0.00 | 0.00 | 0.00 | 18 | 1004.1 |
| 20260504191530 | 65 | 288 | 8.0 | 14.0 | 0.00 | 0.00 | 0.00 | 18 | 1004.2 |
| 20260504191216 | 65 | 311 | 7.0 | 15.0 | 0.00 | 0.00 | 0.00 | 17 | 1004.2 |
| 20260504190534 | 66 | 53 | 8.0 | 16.0 | 0.00 | 0.00 | 0.00 | 18 | 1004.2 |
| 20260504190030 | 66 | 329 | 9.0 | 16.0 | 0.00 | 0.00 | 0.00 | 18 | 1004.4 |
| 20260504185532 | 67 | 50 | 6.0 | 15.0 | 0.00 | 0.00 | 0.00 | 18 | 1004.4 |
| 20260504185030 | 66 | 14 | 4.0 | 12.0 | 0.00 | 0.00 | 0.00 | 18 | 1004.4 |
| 20260504184530 | 66 | 231 | 4.0 | 12.0 | 0.00 | 0.00 | 0.00 | 20 | 1004.7 |
| 20260504184216 | 65 | 286 | 6.0 | 12.0 | 0.00 | 0.00 | 0.00 | 19 | 1004.8 |
| 20260504183715 | 65 | 337 | 7.0 | 12.0 | 0.00 | 0.00 | 0.00 | 19 | 1004.8 |
| 20260504183031 | 65 | 299 | 7.0 | 13.0 | 0.00 | 0.00 | 0.00 | 20 | 1004.8 |
| 20260504182715 | 64 | 241 | 7.0 | 14.0 | 0.00 | 0.00 | 0.00 | 19 | 1004.9 |
| 20260504182031 | 65 | 317 | 5.0 | 14.0 | 0.00 | 0.00 | 0.00 | 19 | 1005.0 |
| 20260504181530 | 65 | 245 | 4.0 | 14.0 | 0.00 | 0.00 | 0.00 | 19 | 1005.0 |
| 20260504181030 | 65 | 342 | 3.0 | 14.0 | 0.00 | 0.00 | 0.00 | 20 | 1005.0 |
| 20260504180716 | 65 | 261 | 3.0 | 11.0 | 0.00 | 0.00 | 0.00 | 20 | 1005.2 |
| 20260504180134 | 64 | 217 | 4.0 | 9.0 | 0.00 | 0.00 | 0.00 | 21 | 1005.3 |
| 20260504175531 | 64 | 273 | 3.0 | 9.0 | 0.00 | 0.00 | 0.00 | 20 | 1005.3 |
| 20260504175030 | 64 | 284 | 3.0 | 9.0 | 0.00 | 0.00 | 0.00 | 21 | 1005.4 |
| 20260504174529 | 64 | 29 | 5.0 | 10.0 | 0.00 | 0.00 | 0.00 | 21 | 1005.4 |
| 20260504174030 | 64 | 88 | 4.0 | 10.0 | 0.00 | 0.00 | 0.00 | 21 | 1005.5 |
| 20260504173531 | 64 | 32 | 2.0 | 6.0 | 0.00 | 0.00 | 0.00 | 21 | 1005.7 |
| 20260504173215 | 65 | 59 | 2.0 | 8.0 | 0.00 | 0.00 | 0.00 | 22 | 1005.5 |
| 20260504172528 | 64 | 233 | 4.0 | 8.0 | 0.00 | 0.00 | 0.00 | 23 | 1005.7 |
| 20260504172030 | 63 | 73 | 4.0 | 8.0 | 0.00 | 0.00 | 0.00 | 24 | 1005.7 |
| 20260504171713 | 63 | 96 | 4.0 | 11.0 | 0.00 | 0.00 | 0.00 | 23 | 1005.7 |
| 20260504171029 | 63 | 207 | 5.0 | 11.0 | 0.00 | 0.00 | 0.00 | 24 | 1005.8 |
| 20260504170528 | 64 | 255 | 6.0 | 11.0 | 0.00 | 0.00 | 0.00 | 24 | 1005.8 |
| 20260504130648 | 38 | 17 | 1.0 | 2.0 | 0.00 | 0.00 | 0.00 | 58 | 1006.7 |
| 20260504130147 | 37 | 16 | 2.0 | 5.0 | 0.00 | 0.00 | 0.00 | 59 | 1006.6 |
| 20260504110641 | 39 | 53 | 1.0 | 5.0 | 0.00 | 0.00 | 0.00 | 56 | 1006.5 |
| 20260504110140 | 39 | 90 | 0.0 | 2.0 | 0.00 | 0.00 | 0.00 | 55 | 1006.5 |
| 20260504090112 | 42 | 206 | 0.0 | 0.0 | 0.00 | 0.00 | 0.00 | 46 | 1006.9 |